Showing default

EUROBIRD 4A(EUTELSAT W1), 26487

Orbit data source: Space-Track

EUROBIRD 4A(EUTELSAT W1), 26487 is a payload satellite owned by Eutelsat (FR) that was launched on Wed, 06 Sep 2000 UTC via an ARIANE 44P launch vehicle from the French Guiana (FRGUI). Payloads include a variety of satellites, spacecraft, and rockets equipped with specific instruments for various scientific and technological missions. These include communications satellites like Starlink; space stations such as the ISS; scientific satellites like the Hubble; Earth observation satellites from companies like Planet Labs, Umbra, and HawkEye 360; GPS; miniature CubeSats for education and research; and military/defense satellites.

Not visible in the next 10 days
EUROBIRD 4A(EUTELSAT W1) details
Identifier
26487, 2000-052A
Orbit
Active
Last TLE update2 days ago
Origin
Flag of FREutelsat (FR / EUTE)
ManufacturerAstrium/Toulouse
MissionNon-operational Civil Communications
Bus & MotorEUROSTAR 2000+, R-4D-11-300
Mass3,250 kg wet, 1,430 kg dry
Launch date (UTC)
2000-09-06 (24 years ago)
Launch vehicle
ARIANE 44P
Launch site
French Guiana (FRGUI)
Object type
Payload
Rocket body
Debris
Shape & HBRBox + 2 Pan, Unknown HBR
Radar Cross Section35.202 m², Large (>1 m²)

Expand to show TLE details & history

TLE from 2 days ago
0 EUROBIRD 4A(EUTELSAT W1)
1 26487U 00052A   24346.87549567 -.00000126  00000-0  00000-0 0  9994
2 26487  10.1639  50.8243 0012158 250.9488 111.6070  0.98181011 87767
Epoch: 2024-12-11T21:00Z
Definitive object data (Epoch: 2024-12-11T21:00:42.825Z)
Latitude0.48982°
Longitude17.21572°
Altitude36,401.996 km
Speed3.052 km/s
True Right ascension03h 33m 49s
True Declination0° 29' 22"
Sunlit
Object was in daylight at TLE epoch
Visualization TLE readout
Latitude1.1788°
Longitude21.04079°
Altitude36,404.988 km
Speed3.052 km/s
Apparent Right ascension04h 13m 21s
Apparent Declination-4° 06' 27"
Sunlit
Object is in daylight
Visualization observer readout
Local Sidereal Time20:41:41
Azimuth78.061° E
Elevation-20.11°
Doppler factor1
Orbital elements
Apogee altitude36,436.09 km
Perigee altitude36,332.109 km
Semi-major axis42,762.237 km
Eccentricity0.0012158
Inclination10.1639°
RAAN50.8243°
Arg. of periapsis250.9488°
True anomaly111.73646°
Mean anomaly111.607°
Eccentric anomaly111.67174°
Mean motion0.24544 °/min
BSTARUnknown
Orbital period1466.73 mins
Loading maneuver chart data...
Loading historical data...
Loading historical data...
Loading historical data...
Loading historical data...
Loading historical data...
Loading historical data...
Loading historical data...
Other satellites on launch #52 in the year 2000 (2000-09-06 UTC)

EUROBIRD 4A(EUTELSAT W1) Visibility forecast

Observer location: undefined°, undefined

EUROBIRD 4A(EUTELSAT W1) is not visible in the next 10 days
Span
Click to sort rows by Start time (UTC) header in descending order
Start Az.
Max El. time (UTC)
Max El. Az.
Max El.
End time (UTC)
End Az.
|